| time (UTC) | temp C | wind direction | speed KPH | gust KPH | rain 1hr cm | rain 24hr cm | rain mn cm | humidity % | barometer mb |
| 20260508113603 | 13 | 288 | 6.4 | 16.1 | 0.00 | 0.18 | 0.00 | 66 | 1014.9 |
| 20260508111803 | 13 | 258 | 6.4 | 14.5 | 0.00 | 0.18 | 0.00 | 67 | 1014.9 |
| 20260508110904 | 13 | 280 | 6.4 | 14.5 | 0.00 | 0.18 | 0.00 | 68 | 1014.9 |
| 20260508110003 | 13 | 279 | 6.4 | 14.5 | 0.00 | 0.18 | 0.00 | 69 | 1014.8 |
| 20260508105404 | 13 | 277 | 6.4 | 14.5 | 0.00 | 0.18 | 0.00 | 68 | 1014.7 |
| 20260508104717 | 12 | 278 | 6.4 | 14.5 | 0.00 | 0.18 | 0.00 | 69 | 1014.7 |
| 20260508103603 | 11 | 285 | 8.0 | 14.5 | 0.00 | 0.18 | 0.00 | 70 | 1014.7 |
| 20260508102703 | 11 | 272 | 8.0 | 14.5 | 0.00 | 0.18 | 0.00 | 70 | 1014.8 |
| 20260508101803 | 11 | 285 | 8.0 | 14.5 | 0.00 | 0.18 | 0.00 | 70 | 1014.6 |
| 20260508100903 | 12 | 273 | 8.0 | 14.5 | 0.00 | 0.18 | 0.00 | 70 | 1014.6 |
| 20260508100003 | 12 | 272 | 6.4 | 16.1 | 0.00 | 0.18 | 0.00 | 72 | 1014.6 |
| 20260508095403 | 12 | 270 | 6.4 | 16.1 | 0.00 | 0.18 | 0.00 | 72 | 1014.5 |
| 20260508094504 | 11 | 270 | 6.4 | 16.1 | 0.00 | 0.18 | 0.00 | 72 | 1014.6 |
| 20260508093603 | 11 | 257 | 6.4 | 14.5 | 0.00 | 0.18 | 0.00 | 72 | 1014.5 |
| 20260508092703 | 11 | 262 | 6.4 | 17.7 | 0.00 | 0.18 | 0.00 | 73 | 1014.4 |
| 20260508091803 | 11 | 267 | 6.4 | 12.9 | 0.00 | 0.18 | 0.00 | 74 | 1014.2 |
| 20260508091118 | 11 | 275 | 4.8 | 11.3 | 0.00 | 0.18 | 0.00 | 75 | 1014.2 |
| 20260508090004 | 11 | 282 | 6.4 | 12.9 | 0.00 | 0.18 | 0.00 | 75 | 1014.2 |
| 20260508085404 | 11 | 279 | 4.8 | 14.5 | 0.00 | 0.18 | 0.00 | 76 | 1014.0 |
| 20260508084503 | 11 | 286 | 4.8 | 11.3 | 0.00 | 0.18 | 0.00 | 76 | 1014.2 |
| 20260508083818 | 11 | 266 | 4.8 | 11.3 | 0.00 | 0.18 | 0.00 | 77 | 1014.1 |
| 20260508082703 | 11 | 282 | 4.8 | 9.7 | 0.00 | 0.18 | 0.00 | 78 | 1014.2 |
| 20260508081804 | 10 | 282 | 4.8 | 11.3 | 0.00 | 0.18 | 0.00 | 78 | 1013.9 |
| 20260508080903 | 10 | 269 | 4.8 | 12.9 | 0.00 | 0.18 | 0.00 | 80 | 1013.8 |
| 20260508080003 | 10 | 276 | 4.8 | 12.9 | 0.00 | 0.18 | 0.00 | 81 | 1013.8 |
| 20260508075404 | 10 | 289 | 4.8 | 11.3 | 0.00 | 0.18 | 0.00 | 81 | 1013.7 |
| 20260508074503 | 10 | 288 | 4.8 | 11.3 | 0.00 | 0.18 | 0.00 | 82 | 1013.7 |
| 20260508073604 | 10 | 301 | 4.8 | 9.7 | 0.00 | 0.18 | 0.00 | 83 | 1013.6 |
| 20260508072704 | 9 | 284 | 4.8 | 9.7 | 0.00 | 0.18 | 0.00 | 84 | 1013.5 |
| 20260508072018 | 9 | 286 | 3.2 | 9.7 | 0.00 | 0.18 | 0.00 | 84 | 1013.4 |
| 20260508070904 | 9 | 293 | 3.2 | 9.7 | 0.00 | 0.18 | 0.00 | 85 | 1013.1 |
| 20260508070218 | 9 | 286 | 3.2 | 9.7 | 0.00 | 0.18 | 0.00 | 85 | 1013.3 |
| 20260508065404 | 8 | 295 | 3.2 | 6.4 | 0.00 | 0.18 | 0.00 | 86 | 1013.2 |
| 20260508064504 | 8 | 291 | 3.2 | 6.4 | 0.00 | 0.18 | 0.00 | 86 | 1013.1 |
| 20260508063604 | 8 | 276 | 3.2 | 6.4 | 0.00 | 0.18 | 0.00 | 87 | 1012.8 |
| 20260508062704 | 8 | 289 | 3.2 | 6.4 | 0.00 | 0.28 | 0.00 | 87 | 1012.8 |
| 20260508061804 | 8 | 293 | 3.2 | 6.4 | 0.00 | 0.33 | 0.00 | 87 | 1012.7 |
| 20260508060904 | 8 | 293 | 3.2 | 11.3 | 0.00 | 0.33 | 0.00 | 88 | 1012.7 |
| 20260508060004 | 8 | 301 | 4.8 | 11.3 | 0.00 | 0.33 | 0.00 | 88 | 1012.4 |
| 20260508055404 | 8 | 300 | 3.2 | 9.7 | 0.00 | 0.33 | 0.00 | 88 | 1012.5 |
| 20260508054503 | 8 | 292 | 1.6 | 6.4 | 0.00 | 0.33 | 0.00 | 88 | 1012.5 |
| 20260508053604 | 7 | 294 | 3.2 | 6.4 | 0.00 | 0.33 | 0.00 | 88 | 1012.2 |
| 20260508052704 | 7 | 276 | 3.2 | 6.4 | 0.00 | 0.33 | 0.00 | 88 | 1012.5 |
| 20260508051803 | 7 | 290 | 3.2 | 6.4 | 0.00 | 0.33 | 0.00 | 89 | 1012.2 |
| 20260508051118 | 7 | 279 | 1.6 | 6.4 | 0.00 | 0.33 | 0.00 | 89 | 1012.2 |
| 20260508050003 | 7 | 283 | 1.6 | 6.4 | 0.00 | 0.38 | 0.00 | 89 | 1012.1 |
| 20260508045403 | 7 | 289 | 1.6 | 4.8 | 0.00 | 0.41 | 0.00 | 89 | 1012.2 |
| 20260508044717 | 7 | 302 | 1.6 | 4.8 | 0.00 | 0.46 | 0.00 | 89 | 1012.2 |
| 20260508043818 | 8 | 286 | 1.6 | 4.8 | 0.00 | 0.48 | 0.00 | 88 | 1012.0 |
| 20260508042704 | 8 | 272 | 3.2 | 6.4 | 0.00 | 0.48 | 0.00 | 88 | 1011.9 |
| 20260508041804 | 8 | 275 | 3.2 | 6.4 | 0.00 | 0.48 | 0.00 | 88 | 1012.0 |
| 20260508040903 | 8 | 263 | 3.2 | 6.4 | 0.00 | 0.48 | 0.00 | 89 | 1012.0 |
| 20260508040003 | 8 | 261 | 3.2 | 6.4 | 0.00 | 0.48 | 0.00 | 89 | 1012.0 |
| 20260508035404 | 8 | 267 | 1.6 | 6.4 | 0.00 | 0.48 | 0.00 | 89 | 1011.8 |
| 20260508034718 | 8 | 263 | 1.6 | 6.4 | 0.00 | 0.48 | 0.00 | 89 | 1011.8 |
| 20260508033818 | 8 | 254 | 3.2 | 9.7 | 0.00 | 0.48 | 0.00 | 89 | 1011.5 |
| 20260508032703 | 8 | 238 | 3.2 | 6.4 | 0.00 | 0.53 | 0.00 | 89 | 1011.7 |
| 20260508031803 | 8 | 210 | 1.6 | 6.4 | 0.00 | 0.58 | 0.00 | 89 | 1011.9 |
| 20260508030903 | 8 | 207 | 3.2 | 6.4 | 0.00 | 0.58 | 0.00 | 90 | 1011.9 |
| 20260508030003 | 8 | 198 | 1.6 | 4.8 | 0.00 | 0.61 | 0.00 | 90 | 1011.7 |
| 20260508025403 | 8 | 201 | 1.6 | 4.8 | 0.00 | 0.64 | 0.00 | 90 | 1011.8 |
| 20260508024503 | 8 | 186 | 1.6 | 3.2 | 0.00 | 0.66 | 0.00 | 90 | 1011.7 |
| 20260508023603 | 8 | 193 | 1.6 | 3.2 | 0.00 | 0.66 | 0.00 | 90 | 1011.8 |
| 20260508022703 | 8 | 200 | 1.6 | 4.8 | 0.00 | 0.66 | 0.00 | 90 | 1011.7 |
| 20260508021804 | 8 | 196 | 1.6 | 4.8 | 0.00 | 0.66 | 0.00 | 90 | 1011.6 |
| 20260508020903 | 8 | 203 | 1.6 | 4.8 | 0.00 | 0.66 | 0.00 | 90 | 1011.6 |
| 20260508020003 | 8 | 203 | 1.6 | 4.8 | 0.00 | 0.66 | 0.00 | 90 | 1011.4 |
| 20260508015403 | 8 | 200 | 1.6 | 4.8 | 0.00 | 0.66 | 0.00 | 90 | 1011.3 |
| 20260508014504 | 8 | 204 | 1.6 | 6.4 | 0.00 | 0.66 | 0.00 | 90 | 1011.2 |
| 20260508013603 | 8 | 189 | 1.6 | 3.2 | 0.00 | 0.66 | 0.00 | 90 | 1011.4 |
| 20260508012703 | 8 | 194 | 1.6 | 6.4 | 0.00 | 0.66 | 0.00 | 90 | 1011.3 |
| 20260508011803 | 8 | 190 | 1.6 | 4.8 | 0.00 | 0.66 | 0.00 | 90 | 1011.3 |
| 20260508010903 | 8 | 194 | 1.6 | 4.8 | 0.00 | 0.66 | 0.00 | 90 | 1011.3 |
| 20260508010003 | 8 | 186 | 0.0 | 3.2 | 0.00 | 0.66 | 0.00 | 91 | 1011.4 |
| 20260508005404 | 8 | 186 | 1.6 | 3.2 | 0.00 | 0.66 | 0.00 | 91 | 1011.5 |
| 20260508004503 | 8 | 174 | 0.0 | 3.2 | 0.00 | 0.66 | 0.00 | 91 | 1011.5 |
| 20260508003603 | 8 | 187 | 1.6 | 3.2 | 0.00 | 0.66 | 0.00 | 91 | 1011.5 |
| 20260508002703 | 8 | 191 | 1.6 | 6.4 | 0.00 | 0.66 | 0.00 | 91 | 1011.3 |
| 20260508002017 | 8 | 139 | 0.0 | 1.6 | 0.00 | 0.66 | 0.00 | 91 | 1011.3 |
| 20260508000903 | 7 | 114 | 0.0 | 1.6 | 0.00 | 0.66 | 0.00 | 91 | 1011.3 |
| 20260508000003 | 8 | 112 | 0.0 | 1.6 | 0.00 | 0.66 | 0.00 | 91 | 1011.3 |
| 20260507235403 | 8 | 111 | 0.0 | 1.6 | 0.00 | 0.66 | 0.00 | 91 | 1011.3 |
| 20260507234503 | 8 | 107 | 0.0 | 1.6 | 0.00 | 0.66 | 0.00 | 92 | 1011.0 |
| 20260507233604 | 8 | 0 | 0.0 | 1.6 | 0.00 | 0.66 | 0.00 | 92 | 1011.2 |
| 20260507232703 | 8 | 0 | 0.0 | 1.6 | 0.00 | 0.66 | 0.00 | 92 | 1011.2 |
| 20260507231803 | 8 | 0 | 0.0 | 1.6 | 0.00 | 0.66 | 0.00 | 92 | 1011.2 |
| 20260507230903 | 8 | 106 | 0.0 | 1.6 | 0.00 | 0.66 | 0.00 | 92 | 1011.1 |
| 20260507230005 | 8 | 106 | 0.0 | 1.6 | 0.00 | 0.66 | 0.00 | 92 | 1011.1 |
| 20260507225403 | 8 | 0 | 0.0 | 0.0 | 0.00 | 0.66 | 0.66 | 92 | 1011.1 |
| 20260507224504 | 8 | 0 | 0.0 | 1.6 | 0.00 | 0.66 | 0.66 | 92 | 1010.9 |
| 20260507223603 | 8 | 0 | 0.0 | 1.6 | 0.00 | 0.66 | 0.66 | 92 | 1011.0 |
| 20260507222703 | 8 | 0 | 0.0 | 1.6 | 0.00 | 0.66 | 0.66 | 92 | 1010.9 |
| 20260507221803 | 8 | 0 | 0.0 | 1.6 | 0.00 | 0.66 | 0.66 | 92 | 1011.0 |
| 20260507220903 | 8 | 106 | 0.0 | 3.2 | 0.00 | 0.66 | 0.66 | 92 | 1010.8 |
| 20260507220217 | 8 | 106 | 0.0 | 3.2 | 0.00 | 0.66 | 0.66 | 92 | 1010.8 |
| 20260507215403 | 8 | 62 | 0.0 | 1.6 | 0.00 | 0.66 | 0.66 | 92 | 1010.9 |
| 20260507214503 | 8 | 62 | 0.0 | 1.6 | 0.00 | 0.66 | 0.66 | 92 | 1010.9 |
| 20260507213603 | 8 | 62 | 0.0 | 1.6 | 0.00 | 0.66 | 0.66 | 92 | 1010.8 |
| 20260507212703 | 8 | 62 | 0.0 | 1.6 | 0.00 | 0.66 | 0.66 | 92 | 1010.8 |
| 20260507211803 | 8 | 62 | 0.0 | 1.6 | 0.00 | 0.66 | 0.66 | 92 | 1010.8 |
| 20260507211117 | 8 | 0 | 0.0 | 1.6 | 0.00 | 0.66 | 0.66 | 92 | 1010.6 |
| 20260507210217 | 8 | 62 | 0.0 | 1.6 | 0.00 | 0.66 | 0.66 | 92 | 1010.5 |
| 20260507205403 | 8 | 62 | 0.0 | 1.6 | 0.00 | 0.66 | 0.66 | 92 | 1010.6 |
| 20260507204503 | 8 | 62 | 0.0 | 1.6 | 0.00 | 0.66 | 0.66 | 92 | 1010.3 |
| 20260507203603 | 8 | 28 | 0.0 | 1.6 | 0.00 | 0.66 | 0.66 | 92 | 1010.2 |
| 20260507202703 | 8 | 21 | 0.0 | 1.6 | 0.00 | 0.66 | 0.66 | 92 | 1010.0 |
| 20260507201803 | 9 | 18 | 0.0 | 1.6 | 0.00 | 0.66 | 0.66 | 91 | 1010.0 |
| 20260507200904 | 9 | 0 | 0.0 | 0.0 | 0.00 | 0.66 | 0.66 | 91 | 1010.0 |
| 20260507200004 | 9 | 0 | 0.0 | 0.0 | 0.00 | 0.66 | 0.66 | 91 | 1009.9 |
| 20260507195403 | 9 | 0 | 0.0 | 0.0 | 0.00 | 0.66 | 0.66 | 91 | 1010.0 |
| 20260507194503 | 9 | 0 | 0.0 | 0.0 | 0.00 | 0.66 | 0.66 | 91 | 1009.8 |
| 20260507193603 | 9 | 0 | 0.0 | 0.0 | 0.00 | 0.66 | 0.66 | 91 | 1009.9 |
| 20260507192703 | 9 | 0 | 0.0 | 0.0 | 0.00 | 0.66 | 0.66 | 91 | 1009.8 |
| 20260507191803 | 9 | 0 | 0.0 | 0.0 | 0.00 | 0.66 | 0.66 | 91 | 1009.8 |
| 20260507190903 | 9 | 0 | 0.0 | 0.0 | 0.03 | 0.66 | 0.66 | 91 | 1009.8 |
| 20260507190004 | 9 | 303 | 0.0 | 1.6 | 0.03 | 0.66 | 0.66 | 90 | 1009.8 |
| 20260507185403 | 9 | 280 | 0.0 | 1.6 | 0.03 | 0.66 | 0.66 | 90 | 1009.8 |
| 20260507184503 | 9 | 287 | 0.0 | 3.2 | 0.05 | 0.66 | 0.66 | 90 | 1009.6 |
| 20260507183603 | 9 | 293 | 1.6 | 3.2 | 0.08 | 0.66 | 0.66 | 90 | 1009.6 |
| 20260507182703 | 10 | 255 | 0.0 | 3.2 | 0.08 | 0.66 | 0.66 | 90 | 1009.6 |
| 20260507181804 | 10 | 213 | 0.0 | 3.2 | 0.08 | 0.66 | 0.66 | 90 | 1009.5 |
| 20260507181118 | 10 | 229 | 0.0 | 3.2 | 0.05 | 0.64 | 0.64 | 89 | 1009.5 |
| 20260507180003 | 10 | 109 | 0.0 | 3.2 | 0.05 | 0.64 | 0.64 | 89 | 1009.5 |
| 20260507175404 | 10 | 172 | 0.0 | 3.2 | 0.05 | 0.64 | 0.64 | 89 | 1009.7 |
| 20260507174503 | 10 | 191 | 0.0 | 3.2 | 0.05 | 0.61 | 0.61 | 88 | 1009.4 |
| 20260507173818 | 10 | 161 | 1.6 | 4.8 | 0.05 | 0.61 | 0.61 | 88 | 1009.3 |
| 20260507172919 | 10 | 163 | 1.6 | 4.8 | 0.03 | 0.58 | 0.58 | 87 | 1009.3 |
| 20260507171804 | 10 | 112 | 1.6 | 4.8 | 0.08 | 0.58 | 0.58 | 88 | 1009.4 |
| 20260507170903 | 10 | 98 | 1.6 | 6.4 | 0.08 | 0.58 | 0.58 | 88 | 1009.2 |
| 20260507170005 | 10 | 132 | 1.6 | 4.8 | 0.08 | 0.58 | 0.58 | 87 | 1009.2 |
| 20260507165403 | 10 | 89 | 1.6 | 9.7 | 0.08 | 0.58 | 0.58 | 87 | 1009.1 |
| 20260507164503 | 11 | 79 | 1.6 | 4.8 | 0.05 | 0.56 | 0.56 | 87 | 1009.0 |